Skip Page Navigation
NASA JPL Caltech
NASA Logo - Jet Propulsion Laboratory + View the NASA Portal
+ Center for Near-Earth Object Studies
JPL Home Earth Solar System Stars & Galaxies Technology
JPL Solar System Dynamics
BODIES ORBITS EPHEMERIDES TOOLS PHYSICAL DATA DISCOVERY FAQ SITE MAP
JPL Small-Body Database Browser
Search: [ help ]  
134725 (2000 AX52)
Classification: Main-belt Asteroid          SPK-ID: 2134725
Ephemeris | Orbit Diagram | Orbital Elements | Mission Design | Physical Parameters | Discovery Circumstances | Close-Approach Data ]

[ show orbit diagram ]
Orbital Elements at Epoch 2459000.5 (2020-May-31.0) TDB
Reference: JPL 16 (heliocentric ecliptic J2000)
 Element Value Uncertainty (1-sigma)   Units 
e .239774675225635 4.1457e-08  
a 2.355337710000485 8.2883e-09 au
q 1.790587375538428 9.8818e-08 au
i 4.060409071072806 4.325e-06 deg
node 291.0395923034589 6.7698e-05 deg
peri 96.15606682707801 6.8262e-05 deg
M 257.3760580977336 9.2024e-06 deg
tp 2459376.878144200619
(2021-Jun-11.37814420)
3.4628e-05 TDB
period 1320.316968931696
3.61
6.9692e-06
1.908e-08
d
yr
n .2726617990006489 1.4392e-09 deg/d
Q 2.920088044462542 1.0276e-08 au
  Orbit Determination Parameters
   # obs. used (total)      850  
   data-arc span      7143 days (19.56 yr)  
   first obs. used      1999-09-18  
   last obs. used      2019-04-09  
   planetary ephem.      DE431  
   SB-pert. ephem.      SB431-N16  
   condition code      0  
   norm. resid. RMS      .5169  
   source      ORB  
   producer      Otto Matic  
   solution date      2019-Jul-13 06:43:06  

Additional Information
 Earth MOID = .800746 au 
 Jupiter MOID = 2.55461 au 
 T_jup = 3.512 
[ show covariance matrix ]

Ephemeris | Orbit Diagram | Orbital Elements | Mission Design | Physical Parameters | Discovery Circumstances | Close-Approach Data ]

Physical Parameter Table
Parameter Symbol Value Units Sigma Reference Notes
absolute magnitude H 15.8   n/a MPO436659  
diameter diameter 4.257 km 0.071 urn:nasa:pds:neowise_diameters_albedos::2.0[mainbelt] (http://adsabs.harvard.edu/abs/2012ApJ...759L...8M)  
geometric albedo albedo 0.056   0.010 urn:nasa:pds:neowise_diameters_albedos::2.0[mainbelt] (http://adsabs.harvard.edu/abs/2012ApJ...759L...8M)  

134725 (2000 AX52)          Discovered 2000-Jan-04 by LINEAR at Socorro
Reference: 20060907/Numbers.arcLast Updated: 2006-09-10

[ show close-approach data ]
Ephemeris | Orbit Diagram | Orbital Elements | Mission Design | Physical Parameters | Discovery Circumstances | Close-Approach Data ]
ABOUT SSD CREDITS/AWARDS PRIVACY/COPYRIGHT GLOSSARY LINKS
FirstGov 2020-Oct-28 02:17 UT
(server date/time)  
NASA Home Page
Site Manager:   Ryan S. Park
Webmaster  Alan B. Chamberlin